Theta_e
319 319 319 319 319 318 318 318 318 318 317 317 316 316 317 317 318 318 319 319 319 319 320 320 321 323 323 315 317 326 357 353 338 337 333 339 334 335 332 333 333 330 331 333 336 334 335
319 318 318 318 318 318 317 318 317 318 317 317 316 316 316 317 317 318 318 318 319 318 319 320 321 322 319 309 322 328 335 336 335 336 338 339 336 338 335 333 331 333 332 333 335 334 334
318 318 318 318 318 317 317 317 317 316 316 316 316 316 316 316 316 317 317 317 317 318 319 321 322 323 314 313 331 338 336 334 334 338 334 339 339 338 338 332 335 335 330 331 333 334 333
318 317 317 317 318 317 317 317 317 317 317 317 316 316 316 316 316 316 316 315 316 318 320 323 324 322 310 319 321 323 332 332 334 336 335 339 345 342 337 337 333 330 330 323 330 332 330
317 317 317 317 317 317 316 316 316 316 316 316 316 315 315 315 315 315 314 315 316 320 325 324 323 320 309 317 314 320 327 328 330 334 340 342 341 336 336 328 322 327 320 322 325 330 329
317 317 316 316 316 316 316 315 315 315 315 315 316 315 314 314 314 314 313 315 319 319 326 327 324 312 312 312 318 321 323 323 323 331 336 334 333 330 331 324 311 318 320 322 322 328 328
317 316 316 316 316 316 316 315 315 315 315 315 315 315 315 314 314 313 314 317 313 315 318 312 312 311 313 316 322 323 321 320 325 328 325 331 325 322 325 328 324 323 322 321 325 330 328
315 316 316 315 316 315 316 316 315 315 314 314 314 314 314 314 313 313 315 312 312 311 307 315 315 313 315 316 313 320 325 319 321 319 323 324 319 325 326 325 325 324 318 321 326 328 328
315 315 315 315 316 316 317 315 315 315 315 314 315 314 314 313 312 313 312 311 317 315 308 310 313 313 313 314 312 316 322 322 320 319 319 318 321 325 324 323 322 322 320 321 321 326 328
316 315 315 315 316 315 315 315 315 315 315 314 314 314 313 312 310 314 311 314 317 314 304 307 308 312 313 314 308 318 324 323 321 318 319 319 324 323 322 321 322 315 324 321 322 322 314
316 315 316 316 316 316 315 315 314 314 314 314 314 313 312 311 311 311 313 318 316 313 294 306 308 317 314 310 312 312 321 322 318 319 320 317 319 321 321 321 324 319 323 322 324 322 321
315 315 316 316 316 315 315 315 314 314 314 314 313 313 312 313 313 315 316 316 314 302 294 304 310 308 309 310 311 315 314 321 323 320 321 320 325 323 324 325 326 326 320 320 325 322 314
316 315 316 316 316 315 315 314 314 314 313 313 312 311 310 312 313 316 315 311 302 297 305 304 306 309 309 307 308 312 311 311 312 311 313 317 320 325 328 323 326 325 315 310 311 311 310
315 315 315 315 314 314 314 314 314 313 313 312 310 310 310 312 317 315 313 306 297 302 303 308 306 307 305 309 308 310 310 309 316 317 314 311 309 322 328 325 322 319 315 311 304 307 311
315 315 315 315 315 314 314 314 313 313 312 311 309 316 315 316 316 315 307 299 300 303 305 304 306 304 305 308 307 308 310 310 314 318 312 311 312 324 327 329 328 319 314 321 316 316 313
315 315 315 316 314 314 314 314 313 313 312 310 314 316 312 317 317 311 304 299 304 307 307 306 301 303 302 305 306 306 309 314 314 318 322 318 311 322 325 329 328 325 324 315 314 305 306
315 315 315 315 315 314 314 313 312 312 310 310 314 313 312 317 314 306 301 303 305 309 308 304 303 302 302 302 305 307 308 314 317 318 321 320 316 318 325 322 319 319 317 317 316 315 307
315 316 315 315 315 314 314 313 312 310 309 311 316 310 315 317 303 307 303 304 300 306 308 307 306 304 303 303 304 305 307 314 319 320 315 320 318 313 317 324 327 325 320 319 311 311 316
315 316 316 315 315 314 314 313 311 310 309 312 309 314 318 314 303 303 306 306 305 305 305 306 305 305 306 304 303 306 307 313 315 318 318 320 315 310 314 319 324 321 322 319 318 318 310
314 315 315 315 314 315 314 313 312 311 310 312 310 308 313 313 312 306 304 305 305 309 307 307 306 308 306 304 307 305 307 309 312 317 326 322 317 314 310 314 318 316 319 321 318 312 315
315 315 315 315 314 315 315 313 312 311 310 312 311 306 306 305 308 305 306 306 305 305 310 311 308 307 306 304 305 304 307 309 312 317 315 318 313 316 316 315 316 318 317 319 318 316 313
315 315 315 315 314 315 315 314 312 311 309 314 306 305 308 306 306 304 301 305 304 306 306 307 307 307 308 306 307 306 307 310 309 313 315 317 312 314 312 316 315 313 316 317 319 320 320
314 314 315 314 314 314 315 314 312 310 310 310 309 311 304 304 305 303 303 303 304 305 308 308 307 307 307 309 312 313 313 313 313 311 312 313 311 311 307 313 313 309 314 315 317 319 320
314 314 314 314 314 314 314 314 313 311 309 308 306 304 303 302 304 304 303 303 303 305 304 307 308 305 310 314 314 315 314 314 314 314 314 312 314 312 308 311 302 313 320 319 317 318 321
314 314 314 314 314 314 314 314 313 312 311 310 309 305 301 299 303 303 304 305 305 306 305 305 307 309 312 309 308 307 308 309 310 313 313 313 313 309 308 307 311 313 316 316 316 316 322
314 314 314 313 314 313 314 314 313 313 311 310 310 309 305 299 305 305 303 305 302 302 305 306 310 313 310 306 306 303 301 304 304 308 313 312 313 310 309 304 303 314 319 322 321 312 324
313 313 313 312 313 313 313 314 314 313 311 311 309 311 304 297 304 307 304 303 307 304 303 306 306 307 311 306 304 303 303 308 303 304 306 307 309 305 306 305 310 318 320 324 313 315 326
314 314 313 313 313 313 313 314 314 313 313 312 310 312 306 300 302 304 305 302 304 304 301 306 306 307 305 304 305 306 305 308 307 310 309 307 306 305 307 305 303 319 318 316 325 329 329
314 314 313 313 313 313 313 313 313 313 312 312 307 312 310 302 301 308 308 310 309 309 307 307 306 306 308 305 307 310 307 310 309 303 314 307 311 308 310 310 320 321 325 326 327 328 331
Wind_Speed
14 15 15 15 15 15 16 15 16 16 16 17 18 18 19 19 19 20 20 20 21 20 19 18 17 17 10 9 12 6 7 12 21 21 20 16 15 14 11 6 7 13 12 7 8 4 8
15 15 15 15 14 16 16 16 16 17 17 18 18 18 18 19 20 21 21 21 21 21 20 18 16 14 8 13 4 4 2 15 19 19 17 15 12 12 6 7 10 6 10 11 9 9 8
15 15 16 16 16 16 17 17 17 17 18 18 18 18 19 21 21 22 22 22 23 22 21 19 12 7 11 17 3 1 9 14 14 17 12 13 7 10 6 7 6 9 12 13 12 9 6
15 15 16 15 16 17 18 18 19 18 18 19 18 19 20 21 21 22 23 24 24 24 19 12 7 7 10 2 6 12 6 11 11 10 8 8 8 5 6 1 6 10 5 12 8 7 4
17 17 17 17 17 17 18 18 19 19 19 18 18 20 20 21 22 23 25 25 26 14 8 6 9 9 10 7 10 16 16 13 10 9 7 8 9 7 6 5 3 11 9 11 9 3 5
16 16 17 17 17 17 18 19 19 19 18 19 18 19 20 21 21 23 26 27 9 8 6 7 5 7 10 6 9 7 16 14 14 13 12 12 10 11 9 7 6 16 8 6 4 3 1
16 16 17 18 18 19 19 20 20 19 18 18 18 18 19 21 22 23 18 5 7 9 10 12 5 13 4 6 4 10 14 18 15 16 15 16 13 15 15 11 9 5 5 3 3 3 6
16 17 18 18 19 20 19 19 20 20 20 20 20 18 20 21 22 22 10 6 5 7 10 19 20 16 11 2 10 11 15 19 18 20 18 11 17 15 4 7 13 14 8 5 6 1 7
16 17 18 19 19 19 19 20 21 20 20 21 19 19 19 20 24 9 6 8 2 8 9 9 17 18 17 15 11 17 21 24 23 23 20 19 12 14 11 12 11 13 8 2 11 8 10
16 18 18 19 20 20 20 20 20 20 20 20 20 18 17 21 11 6 5 4 2 6 8 11 10 10 13 13 16 16 20 19 18 25 20 21 13 8 16 15 11 8 3 7 14 8 12
17 18 17 19 19 19 20 20 22 22 22 20 19 17 13 7 13 6 6 2 6 6 8 9 9 6 5 18 9 25 18 20 20 20 20 18 18 17 12 14 14 11 7 12 17 10 10
17 17 18 18 19 20 19 20 21 22 22 21 21 18 13 9 7 10 8 8 5 8 9 7 8 11 12 19 15 18 25 20 18 20 17 20 10 15 16 4 1 14 7 13 19 13 13
16 17 17 18 18 19 20 21 23 23 24 26 24 20 10 5 0 2 6 7 8 11 5 8 6 9 14 12 21 16 26 25 20 21 19 21 15 11 6 14 9 11 10 6 7 9 9
16 17 17 17 19 20 22 23 24 25 28 28 27 19 5 9 6 10 6 9 12 5 14 2 3 5 10 11 21 21 25 25 27 24 15 18 21 17 13 14 12 18 18 11 5 11 12
16 16 17 18 19 20 22 24 26 27 29 30 22 3 3 4 7 4 7 13 8 4 2 4 8 10 8 11 6 22 24 26 28 25 22 19 19 24 17 9 15 10 11 17 14 12 7
15 16 17 18 20 20 22 24 26 28 29 28 6 3 7 2 7 6 9 15 11 4 6 4 8 3 2 8 12 22 23 24 29 28 21 12 16 17 9 12 8 10 12 12 5 8 9
16 16 17 18 19 21 23 25 26 28 30 24 6 4 6 8 6 6 11 15 14 9 6 5 1 3 2 1 8 15 18 15 26 26 24 21 16 17 15 17 17 7 10 8 4 16 8
16 16 16 17 18 21 22 24 26 27 31 9 5 2 6 3 7 4 11 6 3 14 6 7 6 7 8 7 7 7 18 19 18 23 26 24 13 15 19 19 15 19 15 16 9 13 9
16 15 16 17 18 20 21 24 26 26 23 9 6 2 4 5 6 6 7 10 11 13 13 14 11 5 4 6 5 4 4 5 6 23 25 22 19 15 15 10 11 21 18 15 21 22 14
16 16 16 16 17 19 20 22 25 26 24 6 6 3 5 6 3 8 4 9 8 6 11 10 13 10 13 13 12 8 6 1 5 16 6 21 18 23 15 17 17 16 18 24 21 16 17
15 15 15 14 15 17 18 21 23 27 28 5 4 5 4 3 4 8 8 5 7 5 3 5 8 14 12 12 11 15 13 10 12 6 8 19 21 23 21 18 17 22 19 23 24 24 18
14 14 14 14 14 16 16 18 20 24 33 3 7 7 6 9 7 8 4 5 6 5 4 4 8 3 5 10 12 10 5 10 4 9 11 19 19 20 23 20 22 19 20 24 25 24 23
13 13 14 14 14 14 15 14 15 17 19 5 6 2 4 3 6 6 2 4 3 5 5 7 6 9 10 7 11 13 14 15 15 10 8 10 13 11 18 20 22 24 27 25 23 23 23
14 13 13 13 12 13 14 12 12 12 12 4 3 3 6 7 7 7 7 9 14 12 14 8 10 10 4 15 20 19 19 18 17 15 13 7 9 8 11 14 25 12 20 25 24 23 23
13 13 12 12 12 12 12 12 11 9 9 6 2 3 3 8 10 15 7 9 9 11 15 16 14 12 12 13 10 12 12 13 17 17 16 16 10 6 6 13 9 9 11 14 18 22 20
12 12 12 13 13 12 13 12 10 9 5 4 2 2 4 6 1 7 13 12 11 13 10 8 3 8 7 7 9 11 13 13 14 10 13 16 13 10 9 14 15 13 8 13 16 17 19
12 12 12 13 13 12 12 12 10 10 6 4 3 4 3 4 9 6 7 8 6 6 7 7 4 2 5 7 10 11 13 13 17 20 15 14 13 15 12 13 12 1 6 5 12 4 13
13 13 13 13 13 12 13 13 11 10 8 5 5 6 5 5 14 17 16 15 13 11 9 7 8 5 5 6 8 9 8 9 14 16 20 16 13 12 14 13 13 10 8 10 5 5 2
12 13 12 12 12 12 13 13 11 10 8 5 6 3 5 5 12 22 24 26 25 22 13 7 10 6 4 5 4 6 7 4 11 11 3 14 14 10 9 10 6 2 3 4 6 6 4
Wind_Direction
13 10 6 3 1 360 355 352 350 347 344 342 340 338 335 332 329 326 324 321 317 314 314 314 315 315 300 239 254 86 138 156 169 196 190 181 188 216 238 250 213 243 263 255 256 242 226
11 8 4 1 3 357 357 352 349 346 344 341 339 335 330 328 328 323 321 319 314 312 310 308 305 304 256 257 32 290 180 170 177 194 197 199 204 226 280 239 237 327 280 264 267 232 218
7 3 2 358 355 351 351 347 346 344 342 339 336 332 329 327 326 323 320 317 311 308 305 300 286 255 254 246 41 93 176 175 188 202 198 209 223 216 178 220 238 275 266 225 225 217 220
360 358 358 352 351 351 347 344 344 340 336 334 333 332 329 327 325 321 317 314 310 306 298 283 227 216 258 170 264 234 183 171 187 205 250 192 199 245 263 341 236 258 265 219 141 200 150
2 358 355 354 352 349 347 345 342 340 338 335 332 330 328 326 324 320 316 311 306 298 306 171 190 240 261 114 214 220 212 179 165 189 193 170 211 236 188 234 346 247 215 228 139 117 160
2 358 357 356 353 350 346 345 343 340 337 334 332 330 328 325 322 320 319 299 296 272 213 227 266 228 224 220 187 200 202 217 197 177 170 188 201 220 207 173 210 236 196 183 176 95 203
359 358 355 353 349 347 343 341 338 337 335 333 330 328 324 324 322 320 320 274 213 189 213 227 196 230 78 194 186 193 179 189 198 193 201 198 209 216 217 207 223 287 293 219 195 307 264
354 353 351 348 345 344 337 338 338 335 333 331 329 326 325 322 318 315 278 257 21 349 286 227 245 246 262 315 201 186 184 182 193 199 210 177 225 225 118 193 257 247 254 232 274 26 245
350 351 348 344 342 340 335 338 335 333 331 329 325 323 321 319 313 279 282 268 348 324 259 245 222 227 224 214 221 184 195 203 193 206 200 216 215 213 198 202 240 243 235 225 314 297 247
350 348 347 344 343 343 341 339 335 333 330 328 325 321 325 324 279 344 258 155 278 309 268 190 197 223 201 210 220 221 203 202 206 211 199 225 198 189 205 228 219 234 167 320 294 253 212
353 351 347 347 347 345 343 340 337 332 329 324 320 315 317 332 309 255 39 150 307 209 266 106 141 105 173 202 176 193 197 211 220 206 210 207 222 199 212 213 214 176 68 339 295 256 267
354 351 351 349 345 346 339 334 333 331 326 322 316 308 302 272 222 264 305 282 225 222 240 155 139 178 171 208 217 172 192 220 229 213 205 225 202 216 220 187 269 132 83 332 265 249 223
354 353 350 347 344 342 336 335 333 331 326 322 318 304 268 249 124 118 302 221 209 241 108 164 178 183 208 175 206 186 186 197 203 205 200 217 182 204 213 114 149 147 79 285 207 204 222
354 352 349 344 344 341 338 339 335 334 329 326 322 314 142 207 226 259 254 214 232 202 226 70 263 223 234 187 207 197 191 196 210 209 201 205 197 173 198 183 182 159 144 244 204 203 202
349 345 341 339 340 339 337 340 341 334 332 333 310 155 154 147 230 249 239 214 221 246 350 267 265 251 185 203 243 204 208 204 203 210 225 201 218 175 178 159 155 156 186 240 263 275 291
341 338 337 340 344 339 338 338 341 335 335 337 306 253 40 356 182 212 230 240 234 314 310 260 251 310 199 193 209 198 198 207 205 211 221 200 212 172 142 141 62 188 149 221 227 272 225
342 340 340 340 343 341 341 341 340 338 337 331 253 233 64 114 197 216 230 235 250 246 284 298 205 279 321 340 271 204 214 204 212 198 219 222 223 153 165 206 170 148 165 190 302 278 270
342 343 340 340 342 343 343 343 341 343 340 313 286 259 136 254 225 213 241 251 350 265 211 265 281 277 287 308 281 261 226 209 209 206 206 219 207 185 202 201 219 205 188 182 220 249 249
342 342 340 341 343 341 341 343 342 344 355 311 321 346 146 238 270 208 219 253 248 266 251 249 249 241 299 292 303 270 239 252 278 214 205 207 231 218 159 165 208 220 193 194 192 252 270
340 342 343 343 342 338 341 343 342 342 350 290 290 265 152 221 288 296 312 248 260 209 260 270 259 262 258 255 257 275 285 242 208 236 160 222 216 235 211 208 185 203 216 194 208 220 249
338 340 339 343 339 339 342 343 346 343 338 288 346 50 18 300 176 312 287 290 273 271 241 250 239 243 264 252 241 251 254 262 233 201 229 226 222 238 230 256 207 195 205 210 209 224 243
328 332 337 340 340 342 346 346 352 349 331 6 341 341 340 286 275 273 224 234 270 301 279 223 259 51 255 258 257 333 4 270 4 185 208 210 222 235 245 229 245 231 224 220 214 224 237
322 326 331 335 339 340 343 346 354 359 340 9 6 330 307 283 288 267 293 320 312 328 242 265 320 307 272 340 345 307 292 285 281 295 282 198 223 211 233 228 238 238 223 230 235 227 225
314 317 324 330 332 334 342 347 347 5 358 10 21 297 287 302 303 308 301 292 284 280 272 278 303 292 319 327 301 263 244 255 255 248 239 256 221 203 238 210 225 240 234 229 238 234 240
309 311 318 322 328 330 334 338 339 355 354 336 2 287 310 295 317 291 298 289 288 281 257 266 276 270 294 294 275 246 225 225 229 233 221 222 227 197 214 214 228 211 219 240 235 237 237
306 312 316 320 322 321 326 329 329 331 352 317 329 271 276 302 356 341 311 300 287 288 275 242 287 288 273 258 255 246 224 206 205 186 213 206 227 266 193 250 234 250 204 208 240 244 228
294 302 311 314 312 313 313 316 318 314 325 291 274 214 267 268 277 296 277 319 313 281 282 286 335 290 234 239 243 243 245 229 220 198 178 196 211 219 222 242 248 104 95 152 208 230 223
289 290 294 299 307 308 306 308 311 306 310 299 288 198 245 251 285 275 274 267 262 258 273 339 280 179 223 252 242 231 257 230 244 216 195 199 200 212 236 228 234 127 141 219 360 49 16
280 284 289 293 293 297 299 300 302 299 290 302 276 264 216 235 274 302 287 279 264 259 289 275 296 304 302 268 250 309 242 254 251 209 204 228 210 232 230 217 109 296 19 18 333 328 325